contact: severine.martini@mio.osupytheas.fr, dominique.lefevre@mio.osupytheas.fr
Project:EMSO Ligure-ouest http://www.emso-fr.org/EMSO-France
Sensor Aquadopp, Serial 05974 
DOI : "https://doi.org/10.17882/97948" 
Title:EMSO Western Ligurian : Data Bathybot Aquadopp sensor - deploiement 2023-04-28
Datetime,Profondeur,Latitude,Longitude,X_East,Y_North,Z_up,Amplitude_X,Amplitude_Y,Amplitude_Z,Batterie,Sound_Speed,Heading,Pitch,Roll,Pressure,Temperature,Fluorescence,Speed,Direction
time,m,degree_north,degree_east,m.s-1,m.s-1,m.s-1,1,1,1,Volt,m.s-1,degree,degree,degree,dbar,degree_C,arbitrary units (a.u.),m.s-1,degree
2023-12-21T00:03:12,2420,42.8014,5.9826,0.451,0.03,3.921,155.0,151.0,152.0,11.8,1504.7,271.4,-0.9,0.9,2485.093,13.29,776.0,0.452,86.2
2023-12-21T00:06:13,2420,42.8014,5.9826,0.308,0.068,4.061,155.0,151.0,152.0,11.8,1504.7,271.4,-0.8,0.9,2485.243,13.29,773.0,0.315,77.6
2023-12-21T00:09:13,2420,42.8014,5.9826,0.57,0.06,3.759,155.0,151.0,152.0,11.8,1504.7,271.3,-0.8,0.9,2485.49,13.29,771.0,0.573,84.0
2023-12-21T00:12:13,2420,42.8014,5.9826,0.759,0.045,3.62,155.0,151.0,152.0,11.8,1504.7,271.3,-0.9,0.9,2485.54,13.29,776.0,0.76,86.6
2023-12-21T00:15:12,2420,42.8014,5.9826,0.677,0.054,3.734,155.0,151.0,152.0,11.8,1504.7,271.4,-0.8,0.9,2485.454,13.29,767.0,0.679,85.4
2023-12-21T00:18:13,2420,42.8014,5.9826,-0.203,0.049,2.828,155.0,151.0,152.0,11.8,1504.7,271.4,-0.8,0.9,2485.135,13.28,771.0,0.208,283.6
2023-12-21T00:21:13,2420,42.8014,5.9826,0.624,-0.211,3.285,155.0,151.0,152.0,11.8,1504.7,271.7,-0.8,0.9,2485.131,13.28,774.0,0.659,108.7
2023-12-21T00:24:13,2420,42.8014,5.9826,0.338,0.323,3.611,155.0,151.0,152.0,11.8,1504.7,271.4,-0.8,0.9,2485.344,13.29,785.0,0.468,46.3
2023-12-21T00:27:13,2420,42.8014,5.9826,0.575,0.065,3.788,155.0,151.0,152.0,11.8,1504.7,271.4,-0.8,0.9,2485.741,13.29,781.0,0.579,83.6
2023-12-21T00:30:13,2420,42.8014,5.9826,0.511,-0.197,3.407,155.0,151.0,152.0,11.8,1504.7,271.4,-0.8,0.9,2485.113,13.29,771.0,0.548,111.1
2023-12-21T00:33:12,2420,42.8014,5.9826,0.236,0.317,3.715,155.0,151.0,152.0,11.8,1504.7,271.4,-0.8,0.9,2485.37,13.3,746.0,0.395,36.7
2023-12-21T00:36:13,2420,42.8014,5.9826,0.125,0.069,3.366,155.0,151.0,152.0,11.8,1504.7,271.4,-0.8,0.9,2485.334,13.3,775.0,0.142,61.1
2023-12-21T00:39:13,2420,42.8014,5.9826,0.245,-0.186,3.672,155.0,151.0,152.0,11.8,1504.7,271.3,-0.8,0.9,2484.964,13.3,804.0,0.308,127.2
2023-12-21T00:42:13,2420,42.8014,5.9826,0.379,0.293,3.582,155.0,151.0,152.0,11.8,1504.7,271.5,-0.8,0.9,2484.719,13.29,778.0,0.479,52.3
2023-12-21T00:45:13,2420,42.8014,5.9826,0.817,0.033,3.605,155.0,151.0,152.0,11.8,1504.7,271.4,-0.8,0.9,2485.342,13.3,754.0,0.818,87.7
2023-12-21T00:48:13,2420,42.8014,5.9826,0.204,-0.44,3.298,155.0,151.0,152.0,11.8,1504.8,271.3,-0.8,0.9,2485.305,13.31,771.0,0.485,155.1
2023-12-21T00:51:13,2420,42.8014,5.9826,0.206,0.54,3.281,155.0,151.0,152.0,11.8,1504.8,271.3,-0.9,0.9,2484.846,13.32,752.0,0.578,20.9
2023-12-21T00:54:13,2420,42.8014,5.9826,0.325,0.026,2.315,155.0,151.0,152.0,11.8,1504.8,271.3,-0.8,0.9,2485.179,13.32,774.0,0.326,85.4
2023-12-21T00:57:13,2420,42.8014,5.9826,0.359,0.033,3.106,155.0,151.0,152.0,11.8,1504.8,271.4,-0.8,0.9,2485.185,13.33,760.0,0.36,84.7
2023-12-21T01:03:13,2420,42.8014,5.9826,0.868,0.023,3.475,155.0,151.0,152.0,11.8,1504.8,271.5,-0.8,0.9,2485.522,13.33,767.0,0.868,88.5
2023-12-21T01:06:13,2420,42.8014,5.9826,0.732,0.041,3.669,155.0,151.0,152.0,11.8,1504.8,271.4,-0.9,0.9,2485.318,13.33,776.0,0.733,86.8
2023-12-21T01:09:13,2420,42.8014,5.9826,0.675,0.018,3.603,155.0,151.0,152.0,11.8,1504.8,271.4,-0.9,0.9,2485.384,13.32,771.0,0.675,88.5
2023-12-21T01:12:13,2420,42.8014,5.9826,0.559,-0.199,3.389,155.0,151.0,152.0,11.8,1504.8,271.3,-0.8,0.9,2485.275,13.33,768.0,0.593,109.6
2023-12-21T01:15:13,2420,42.8014,5.9826,0.377,0.289,3.556,155.0,151.0,152.0,11.8,1504.8,271.4,-0.9,0.9,2485.37,13.33,761.0,0.475,52.5
2023-12-21T01:18:13,2420,42.8014,5.9826,0.168,0.062,4.211,155.0,152.0,152.0,11.8,1504.8,271.3,-0.8,0.9,2484.96,13.33,764.0,0.179,69.7
2023-12-21T01:21:13,2420,42.8014,5.9826,0.226,0.071,4.181,155.0,152.0,152.0,11.8,1504.8,271.3,-0.8,0.8,2485.478,13.33,768.0,0.236,72.6
2023-12-21T01:24:12,2420,42.8014,5.9826,0.513,0.041,3.862,155.0,151.0,152.0,11.8,1504.8,271.4,-0.8,0.9,2485.048,13.32,1011.0,0.515,85.4
2023-12-21T01:27:13,2420,42.8014,5.9826,0.393,0.063,4.03,155.0,151.0,152.0,11.8,1504.8,271.4,-0.8,0.9,2485.233,13.32,773.0,0.398,80.9
2023-12-21T01:30:13,2420,42.8014,5.9826,0.021,0.56,3.514,155.0,151.0,152.0,11.7,1504.8,271.4,-0.8,0.9,2485.255,13.32,782.0,0.56,2.1
2023-12-21T01:33:13,2420,42.8014,5.9826,0.38,-0.197,3.575,155.0,152.0,152.0,11.7,1504.8,271.4,-0.8,0.9,2485.609,13.32,775.0,0.428,117.4
2023-12-21T01:36:12,2420,42.8014,5.9826,0.212,0.284,3.734,155.0,151.0,152.0,11.8,1504.8,271.3,-0.8,0.9,2485.394,13.32,775.0,0.354,36.7
2023-12-21T01:39:13,2420,42.8014,5.9826,0.354,0.299,3.606,155.0,151.0,152.0,11.8,1504.8,271.3,-0.8,0.9,2485.249,13.32,766.0,0.463,49.8
2023-12-21T01:42:13,2420,42.8014,5.9826,0.752,-0.222,3.199,155.0,152.0,152.0,11.8,1504.8,271.3,-0.8,0.9,2485.211,13.32,786.0,0.784,106.4
2023-12-21T01:45:13,2420,42.8014,5.9826,0.588,0.065,3.829,155.0,152.0,152.0,11.8,1504.8,271.3,-0.8,0.9,2485.265,13.31,763.0,0.592,83.7
2023-12-21T01:48:13,2420,42.8014,5.9826,0.505,0.063,3.919,155.0,151.0,152.0,11.7,1504.8,271.4,-0.8,0.9,2485.203,13.31,781.0,0.509,82.9
2023-12-21T01:51:13,2420,42.8014,5.9826,0.753,0.266,3.227,155.0,151.0,152.0,11.8,1504.8,271.4,-0.8,0.9,2485.336,13.32,857.0,0.799,70.5
2023-12-21T01:54:13,2420,42.8014,5.9826,0.22,0.063,4.184,155.0,151.0,152.0,11.7,1504.8,271.5,-0.9,0.9,2485.201,13.32,782.0,0.228,74.0
2023-12-21T01:57:13,2420,42.8014,5.9826,0.086,0.314,3.916,155.0,151.0,152.0,11.8,1504.8,271.4,-0.8,0.9,2484.924,13.32,1356.0,0.326,15.3
2023-12-21T02:03:13,2420,42.8014,5.9826,0.331,0.039,3.183,155.0,151.0,152.0,11.8,1504.8,271.3,-0.8,0.9,2485.259,13.31,759.0,0.333,83.3
2023-12-21T02:06:13,2420,42.8014,5.9826,0.224,-0.205,2.854,155.0,151.0,152.0,11.8,1504.8,271.4,-0.8,0.9,2485.185,13.31,1899.0,0.304,132.5
2023-12-21T02:09:13,2420,42.8014,5.9826,0.163,-0.203,2.922,155.0,151.0,152.0,11.8,1504.8,271.3,-0.8,0.9,2485.44,13.31,783.0,0.26,141.2
2023-12-21T02:12:13,2420,42.8014,5.9826,0.611,0.037,2.938,155.0,151.0,152.0,11.8,1504.8,271.4,-0.8,0.9,2485.344,13.31,765.0,0.612,86.5
2023-12-21T02:15:13,2420,42.8014,5.9826,0.097,0.056,3.404,155.0,152.0,152.0,11.8,1504.8,271.5,-0.8,0.9,2485.474,13.31,777.0,0.112,60.0
2023-12-21T02:18:13,2420,42.8014,5.9826,0.502,0.039,3.886,155.0,151.0,152.0,11.8,1504.8,271.3,-0.9,0.8,2485.45,13.31,767.0,0.504,85.6
2023-12-21T02:21:12,2420,42.8014,5.9826,0.162,0.027,1.594,155.0,151.0,152.0,11.8,1504.8,271.5,-0.8,0.9,2485.693,13.31,796.0,0.164,80.5
2023-12-21T02:24:13,2420,42.8014,5.9826,0.856,0.045,3.559,155.0,152.0,152.0,11.8,1504.8,271.4,-0.8,0.9,2485.055,13.31,767.0,0.857,87.0
2023-12-21T02:27:13,2420,42.8014,5.9826,0.509,0.299,3.485,155.0,151.0,152.0,11.8,1504.8,271.4,-0.8,0.9,2485.45,13.31,765.0,0.59,59.6
2023-12-21T02:30:13,2420,42.8014,5.9826,0.666,-0.201,3.313,155.0,151.0,152.0,11.7,1504.7,271.4,-0.8,0.9,2485.125,13.3,765.0,0.696,106.8
2023-12-21T02:33:13,2420,42.8014,5.9826,0.435,0.278,2.609,155.0,151.0,152.0,11.8,1504.7,271.3,-0.9,0.9,2485.305,13.3,769.0,0.516,57.4
2023-12-21T02:36:13,2420,42.8014,5.9826,0.23,-0.19,2.866,155.0,151.0,152.0,11.8,1504.7,271.3,-0.8,0.9,2485.404,13.3,769.0,0.298,129.6
2023-12-21T02:39:13,2420,42.8014,5.9826,0.05,-0.684,3.016,155.0,151.0,152.0,11.8,1504.7,271.4,-0.8,0.9,2485.167,13.29,758.0,0.686,175.8
2023-12-21T02:42:13,2420,42.8014,5.9826,0.594,-0.23,2.457,155.0,152.0,152.0,11.8,1504.7,271.5,-0.8,0.9,2485.279,13.29,758.0,0.637,111.2
2023-12-21T02:45:13,2420,42.8014,5.9826,0.514,0.047,3.917,155.0,151.0,152.0,11.8,1504.7,271.3,-0.9,0.9,2485.05,13.29,768.0,0.516,84.8
2023-12-21T02:48:12,2420,42.8014,5.9826,0.898,-0.723,2.157,155.0,151.0,152.0,11.8,1504.7,271.5,-0.8,0.9,2485.169,13.29,773.0,1.153,128.8
2023-12-21T02:51:13,2420,42.8014,5.9826,0.197,0.537,3.326,155.0,151.0,152.0,11.7,1504.7,271.5,-0.8,0.9,2484.934,13.29,772.0,0.572,20.1
2023-12-21T02:54:13,2420,42.8014,5.9826,0.083,0.079,3.404,155.0,152.0,152.0,11.8,1504.7,271.4,-0.8,0.9,2485.394,13.29,904.0,0.114,46.4
2023-12-21T02:57:13,2420,42.8014,5.9826,0.523,0.278,3.44,155.0,151.0,152.0,11.8,1504.7,271.6,-0.8,0.9,2485.436,13.29,772.0,0.592,62.0
2023-12-21T03:03:12,2420,42.8014,5.9826,0.82,-0.215,2.185,155.0,151.0,152.0,11.7,1504.7,271.3,-0.8,0.9,2485.554,13.29,754.0,0.848,104.7
2023-12-21T03:06:13,2420,42.8014,5.9826,0.85,-0.225,2.252,155.0,151.0,152.0,11.8,1504.7,271.3,-0.9,0.9,2485.462,13.29,768.0,0.879,104.8
2023-12-21T03:09:13,2420,42.8014,5.9826,0.475,0.04,3.866,156.0,152.0,153.0,11.7,1504.7,271.6,-0.8,0.9,2485.107,13.28,771.0,0.477,85.2
2023-12-21T03:12:13,2420,42.8014,5.9826,0.058,0.068,4.235,156.0,152.0,153.0,11.7,1504.7,271.3,-0.8,0.9,2485.012,13.28,763.0,0.089,40.5
2023-12-21T03:15:13,2420,42.8014,5.9826,0.077,0.056,4.236,155.0,152.0,153.0,11.7,1504.7,271.8,-0.8,0.9,2484.685,13.28,760.0,0.095,54.0
2023-12-21T03:18:12,2420,42.8014,5.9826,0.741,0.036,3.686,155.0,151.0,152.0,11.8,1504.7,271.5,-0.8,0.9,2484.998,13.28,776.0,0.742,87.2
2023-12-21T03:21:13,2420,42.8014,5.9826,0.536,0.04,3.916,155.0,151.0,152.0,11.8,1504.7,271.5,-0.8,0.9,2485.42,13.28,778.0,0.537,85.7
2023-12-21T03:24:13,2420,42.8014,5.9826,0.453,-0.219,2.608,155.0,152.0,152.0,11.8,1504.7,271.3,-0.8,0.9,2485.105,13.28,759.0,0.503,115.8
2023-12-21T03:27:13,2420,42.8014,5.9826,0.283,0.282,1.925,155.0,151.0,152.0,11.8,1504.7,271.5,-0.8,0.9,2485.404,13.28,765.0,0.4,45.1
2023-12-21T03:30:13,2420,42.8014,5.9826,0.647,-0.707,2.381,155.0,152.0,152.0,11.8,1504.7,271.3,-0.9,0.9,2485.468,13.28,760.0,0.958,137.5
2023-12-21T03:33:12,2420,42.8014,5.9826,0.837,0.529,2.657,155.0,151.0,152.0,11.8,1504.7,271.4,-0.8,0.9,2485.223,13.28,761.0,0.99,57.7
2023-12-21T03:36:13,2420,42.8014,5.9826,0.805,-0.214,3.16,155.0,152.0,152.0,11.8,1504.7,271.3,-0.8,0.9,2485.4,13.28,763.0,0.833,104.9
2023-12-21T03:39:13,2420,42.8014,5.9826,1.16,-0.238,2.769,155.0,151.0,152.0,11.7,1504.7,271.3,-0.8,0.9,2485.04,13.28,778.0,1.184,101.6
2023-12-21T03:42:13,2420,42.8014,5.9826,0.893,0.026,3.479,155.0,152.0,152.0,11.8,1504.7,271.5,-0.8,0.9,2485.117,13.28,768.0,0.893,88.3
2023-12-21T03:45:13,2420,42.8014,5.9826,1.039,0.031,3.335,155.0,151.0,152.0,11.7,1504.7,271.4,-0.8,0.9,2485.601,13.28,776.0,1.039,88.3
2023-12-21T03:48:12,2420,42.8014,5.9826,1.117,0.012,3.213,155.0,151.0,152.0,11.8,1504.7,271.3,-0.8,0.9,2485.378,13.28,776.0,1.117,89.4
2023-12-21T03:51:13,2420,42.8014,5.9826,1.235,0.038,3.141,155.0,152.0,152.0,11.8,1504.7,271.4,-0.8,0.9,2485.33,13.28,767.0,1.235,88.2
2023-12-21T03:54:13,2420,42.8014,5.9826,0.571,-0.206,3.335,155.0,151.0,152.0,11.8,1504.7,271.5,-0.8,0.9,2485.265,13.28,779.0,0.607,109.8
2023-12-21T03:57:13,2420,42.8014,5.9826,0.757,-0.472,2.724,155.0,152.0,152.0,11.8,1504.7,271.4,-0.9,0.9,2485.277,13.28,779.0,0.892,121.9
2023-12-21T04:03:12,2420,42.8014,5.9826,0.765,0.047,3.63,155.0,152.0,152.0,11.8,1504.7,271.3,-0.8,0.9,2485.364,13.28,778.0,0.766,86.5
2023-12-21T04:06:13,2420,42.8014,5.9826,1.26,-0.012,3.081,155.0,152.0,152.0,11.8,1504.7,271.5,-0.8,0.9,2485.241,13.28,763.0,1.26,90.5
2023-12-21T04:09:13,2420,42.8014,5.9826,0.675,0.286,3.235,155.0,152.0,152.0,11.8,1504.7,271.3,-0.8,0.9,2485.442,13.28,764.0,0.733,67.0
2023-12-21T04:12:13,2420,42.8014,5.9826,0.69,0.269,3.255,155.0,152.0,152.0,11.8,1504.7,271.4,-0.8,0.9,2485.665,13.28,762.0,0.741,68.7
2023-12-21T04:15:13,2420,42.8014,5.9826,1.114,0.026,3.213,155.0,151.0,152.0,11.8,1504.7,271.4,-0.9,0.9,2485.342,13.28,769.0,1.114,88.7
2023-12-21T04:18:13,2420,42.8014,5.9826,0.783,-0.222,3.133,155.0,151.0,152.0,11.7,1504.7,271.5,-0.8,0.9,2485.311,13.28,769.0,0.814,105.8
2023-12-21T04:21:12,2420,42.8014,5.9826,1.002,0.037,3.431,155.0,151.0,152.0,11.8,1504.7,271.5,-0.8,0.9,2485.615,13.28,778.0,1.003,87.9
2023-12-21T04:24:13,2420,42.8014,5.9826,0.646,-0.454,2.844,155.0,152.0,152.0,11.8,1504.7,271.3,-0.8,0.9,2485.322,13.28,776.0,0.79,125.1
2023-12-21T04:27:13,2420,42.8014,5.9826,0.745,0.034,3.65,155.0,152.0,152.0,11.8,1504.7,271.3,-0.8,0.9,2484.998,13.28,758.0,0.746,87.4
2023-12-21T04:30:13,2420,42.8014,5.9826,1.039,0.516,2.44,155.0,151.0,152.0,11.8,1504.7,271.5,-0.8,0.9,2485.44,13.28,763.0,1.16,63.6
2023-12-21T04:33:12,2420,42.8014,5.9826,0.988,0.037,3.39,155.0,151.0,152.0,11.8,1504.7,271.4,-0.8,0.9,2485.332,13.28,764.0,0.989,87.9
2023-12-21T04:36:13,2420,42.8014,5.9826,1.048,0.256,2.852,155.0,151.0,152.0,11.8,1504.7,271.3,-0.9,0.9,2485.309,13.28,776.0,1.079,76.3
2023-12-21T04:39:13,2420,42.8014,5.9826,0.928,0.051,3.413,155.0,152.0,152.0,11.8,1504.7,271.3,-0.8,0.9,2485.41,13.28,772.0,0.929,86.9
2023-12-21T04:42:13,2420,42.8014,5.9826,0.761,-0.473,2.756,155.0,151.0,152.0,11.8,1504.7,271.4,-0.9,0.9,2485.629,13.28,767.0,0.896,121.9
2023-12-21T04:45:13,2420,42.8014,5.9826,0.728,0.257,3.175,155.0,152.0,152.0,11.8,1504.7,271.5,-0.8,0.9,2485.504,13.28,785.0,0.772,70.6
2023-12-21T04:48:13,2420,42.8014,5.9826,0.619,0.027,2.904,155.0,151.0,152.0,11.8,1504.7,271.3,-0.8,0.9,2485.446,13.28,758.0,0.619,87.5
2023-12-21T04:51:13,2420,42.8014,5.9826,0.412,0.041,3.042,155.0,152.0,152.0,11.7,1504.7,271.3,-0.8,0.9,2485.671,13.28,782.0,0.414,84.3
2023-12-21T04:54:13,2420,42.8014,5.9826,1.168,0.276,2.7,155.0,151.0,152.0,11.8,1504.7,271.4,-0.8,0.9,2485.257,13.28,774.0,1.2,76.7
2023-12-21T04:57:12,2420,42.8014,5.9826,1.189,0.008,3.132,155.0,152.0,152.0,11.8,1504.7,271.4,-0.8,0.9,2485.223,13.28,762.0,1.189,89.6
2023-12-21T05:03:13,2420,42.8014,5.9826,0.583,0.045,3.771,155.0,151.0,152.0,11.8,1504.7,271.4,-0.8,0.9,2485.307,13.28,776.0,0.585,85.6
2023-12-21T05:06:12,2420,42.8014,5.9826,0.866,0.043,3.429,155.0,152.0,152.0,11.8,1504.7,271.5,-0.8,0.9,2484.968,13.28,777.0,0.867,87.2
2023-12-21T05:09:13,2420,42.8014,5.9826,0.542,0.022,2.909,155.0,151.0,152.0,11.8,1504.7,271.3,-0.9,0.9,2485.273,13.28,760.0,0.542,87.7
2023-12-21T05:12:13,2420,42.8014,5.9826,0.832,0.029,3.499,155.0,152.0,152.0,11.8,1504.7,271.7,-0.8,0.9,2485.183,13.28,2706.0,0.832,88.0
2023-12-21T05:15:13,2420,42.8014,5.9826,1.168,0.266,2.762,155.0,151.0,152.0,11.7,1504.7,271.3,-0.8,0.9,2485.54,13.28,780.0,1.198,77.2
2023-12-21T05:18:13,2420,42.8014,5.9826,0.787,0.018,3.525,155.0,151.0,152.0,11.7,1504.7,271.4,-0.9,0.9,2484.994,13.28,772.0,0.787,88.7
2023-12-21T05:21:12,2420,42.8014,5.9826,0.801,0.066,3.541,155.0,152.0,152.0,11.8,1504.7,271.3,-0.9,0.9,2485.107,13.28,772.0,0.804,85.3
2023-12-21T05:24:12,2420,42.8014,5.9826,0.796,0.285,3.13,155.0,152.0,152.0,11.7,1504.7,271.4,-0.8,0.9,2485.117,13.28,755.0,0.845,70.3
2023-12-21T05:27:13,2420,42.8014,5.9826,0.79,0.27,3.125,155.0,151.0,152.0,11.8,1504.7,271.5,-0.8,0.9,2485.394,13.28,758.0,0.835,71.1
2023-12-21T05:30:13,2420,42.8014,5.9826,0.811,0.029,3.52,155.0,152.0,152.0,11.8,1504.7,271.3,-0.8,0.9,2485.372,13.28,762.0,0.812,88.0
2023-12-21T05:33:12,2420,42.8014,5.9826,0.929,0.037,3.422,155.0,151.0,152.0,11.8,1504.7,271.3,-0.8,0.8,2485.504,13.28,765.0,0.93,87.7
2023-12-21T05:36:13,2420,42.8014,5.9826,0.875,0.012,3.509,155.0,151.0,152.0,11.8,1504.7,271.3,-0.8,0.9,2485.498,13.28,772.0,0.875,89.2
2023-12-21T05:39:13,2420,42.8014,5.9826,0.834,-0.196,3.032,155.0,152.0,152.0,11.8,1504.7,271.4,-0.9,0.9,2485.595,13.28,781.0,0.857,103.2
2023-12-21T05:42:13,2420,42.8014,5.9826,1.325,0.018,3.021,155.0,152.0,152.0,11.8,1504.7,271.4,-0.8,0.9,2485.297,13.28,767.0,1.325,89.2
2023-12-21T05:45:13,2420,42.8014,5.9826,1.021,0.26,2.934,155.0,151.0,152.0,11.7,1504.7,271.4,-0.8,0.9,2485.528,13.28,763.0,1.053,75.7
2023-12-21T05:48:13,2420,42.8014,5.9826,0.879,0.04,3.445,155.0,152.0,152.0,11.8,1504.7,271.4,-0.8,0.9,2485.464,13.28,764.0,0.88,87.4
2023-12-21T05:51:13,2420,42.8014,5.9826,1.05,0.499,2.409,155.0,152.0,152.0,11.7,1504.7,271.4,-0.8,0.9,2485.151,13.28,765.0,1.162,64.6
2023-12-21T05:54:13,2420,42.8014,5.9826,0.764,0.288,3.144,155.0,151.0,152.0,11.8,1504.7,271.4,-0.8,0.9,2485.643,13.28,763.0,0.816,69.3
2023-12-21T05:57:13,2420,42.8014,5.9826,0.729,0.495,2.789,155.0,151.0,152.0,11.8,1504.7,271.4,-0.9,0.9,2485.324,13.28,766.0,0.881,55.8
2023-12-21T06:03:13,2420,42.8014,5.9826,1.021,0.025,3.28,155.0,152.0,152.0,11.8,1504.7,271.5,-0.8,0.9,2485.412,13.28,774.0,1.021,88.6
2023-12-21T06:06:13,2420,42.8014,5.9826,1.195,0.001,3.076,155.0,152.0,152.0,11.8,1504.7,271.5,-0.8,0.9,2485.02,13.28,774.0,1.195,90.0
2023-12-21T06:09:13,2420,42.8014,5.9826,0.997,0.024,3.327,155.0,152.0,152.0,11.8,1504.7,271.3,-0.8,0.9,2485.562,13.28,758.0,0.997,88.6
2023-12-21T06:12:13,2420,42.8014,5.9826,0.811,0.042,3.559,155.0,151.0,152.0,11.8,1504.7,271.4,-0.9,0.9,2485.546,13.28,767.0,0.812,87.0
2023-12-21T06:15:13,2420,42.8014,5.9826,0.955,0.052,3.365,155.0,151.0,152.0,11.8,1504.7,271.4,-0.8,0.9,2485.303,13.28,769.0,0.956,86.9
2023-12-21T06:18:13,2420,42.8014,5.9826,0.857,0.05,3.447,155.0,152.0,152.0,11.8,1504.7,271.3,-0.8,0.9,2485.318,13.28,758.0,0.858,86.7
2023-12-21T06:21:13,2420,42.8014,5.9826,0.972,0.025,3.29,155.0,151.0,152.0,11.8,1504.7,271.4,-0.8,0.9,2485.133,13.28,762.0,0.972,88.5
2023-12-21T06:24:13,2420,42.8014,5.9826,0.819,0.042,3.448,155.0,152.0,152.0,11.8,1504.7,271.3,-0.9,0.9,2485.556,13.28,757.0,0.82,87.1
2023-12-21T06:27:13,2420,42.8014,5.9826,0.909,0.011,3.413,155.0,152.0,152.0,11.8,1504.7,271.5,-0.8,0.9,2485.452,13.28,764.0,0.909,89.3
2023-12-21T06:30:13,2420,42.8014,5.9826,0.866,0.04,3.451,155.0,151.0,152.0,11.8,1504.7,271.5,-0.8,0.9,2485.326,13.28,762.0,0.867,87.4
2023-12-21T06:33:13,2420,42.8014,5.9826,1.113,0.036,3.175,155.0,151.0,152.0,11.8,1504.7,271.4,-0.9,0.9,2485.546,13.28,764.0,1.113,88.1
2023-12-21T06:36:13,2420,42.8014,5.9826,1.013,0.016,3.297,155.0,151.0,152.0,11.8,1504.7,271.4,-0.8,1.0,2485.422,13.28,765.0,1.013,89.1
2023-12-21T06:39:13,2420,42.8014,5.9826,0.89,0.018,2.595,155.0,151.0,152.0,11.8,1504.7,271.3,-0.9,0.9,2485.424,13.28,772.0,0.89,88.8
2023-12-21T06:42:13,2420,42.8014,5.9826,0.86,0.027,3.495,155.0,152.0,152.0,11.8,1504.7,271.4,-0.8,0.9,2485.404,13.28,766.0,0.86,88.2
2023-12-21T06:45:13,2420,42.8014,5.9826,1.045,0.025,3.268,155.0,151.0,152.0,11.8,1504.7,271.3,-0.8,0.9,2485.301,13.28,751.0,1.045,88.6
2023-12-21T06:48:13,2420,42.8014,5.9826,1.21,0.024,3.051,155.0,151.0,152.0,11.8,1504.7,271.4,-0.9,0.9,2485.488,13.28,3022.0,1.21,88.9
2023-12-21T06:51:13,2420,42.8014,5.9826,1.201,0.007,3.131,155.0,151.0,152.0,11.8,1504.7,271.3,-0.9,0.9,2485.42,13.28,5714.0,1.201,89.7
2023-12-21T06:54:13,2420,42.8014,5.9826,0.922,0.039,3.38,155.0,151.0,152.0,11.8,1504.7,271.5,-0.8,0.9,2484.802,13.28,5653.0,0.923,87.6
2023-12-21T06:57:12,2420,42.8014,5.9826,0.598,0.281,3.285,155.0,151.0,152.0,11.7,1504.7,271.4,-0.9,0.9,2485.203,13.28,5710.0,0.661,64.8
2023-12-21T07:03:12,2420,42.8014,5.9826,0.667,0.269,3.192,155.0,152.0,152.0,11.8,1504.7,271.4,-0.8,0.9,2484.992,13.28,7134.0,0.719,68.0
2023-12-21T07:06:12,2420,42.8014,5.9826,0.923,0.031,3.368,155.0,152.0,152.0,11.8,1504.7,271.5,-0.8,0.9,2485.175,13.28,767.0,0.924,88.1
2023-12-21T07:09:13,2420,42.8014,5.9826,1.088,0.016,3.247,155.0,152.0,152.0,11.8,1504.7,271.4,-0.8,0.9,2485.482,13.28,765.0,1.088,89.2
2023-12-21T07:12:13,2420,42.8014,5.9826,0.831,0.046,3.484,155.0,152.0,152.0,11.8,1504.7,271.4,-0.8,0.9,2485.314,13.28,772.0,0.832,86.8
2023-12-21T07:15:13,2420,42.8014,5.9826,0.962,0.036,3.36,155.0,152.0,152.0,11.8,1504.7,271.4,-0.8,0.9,2485.036,13.28,774.0,0.963,87.9
2023-12-21T07:18:13,2420,42.8014,5.9826,0.538,0.065,3.809,155.0,151.0,152.0,11.8,1504.7,271.5,-0.8,0.9,2485.169,13.28,759.0,0.542,83.1
2023-12-21T07:21:13,2420,42.8014,5.9826,0.97,0.046,3.371,155.0,152.0,152.0,11.8,1504.7,271.4,-0.9,0.9,2485.46,13.28,767.0,0.971,87.3
2023-12-21T07:24:13,2420,42.8014,5.9826,1.053,0.023,3.25,155.0,151.0,152.0,11.8,1504.7,271.4,-0.8,0.9,2485.601,13.28,760.0,1.053,88.8
2023-12-21T07:27:13,2420,42.8014,5.9826,0.735,0.262,3.129,155.0,151.0,152.0,11.8,1504.7,271.4,-0.9,0.9,2485.217,13.28,755.0,0.78,70.4
2023-12-21T07:30:13,2420,42.8014,5.9826,0.764,0.032,3.538,155.0,151.0,152.0,11.8,1504.7,271.5,-0.8,0.9,2485.482,13.28,766.0,0.765,87.6
2023-12-21T07:33:13,2420,42.8014,5.9826,0.696,0.052,3.62,155.0,151.0,152.0,11.8,1504.7,271.3,-0.8,0.9,2485.484,13.28,775.0,0.698,85.7
2023-12-21T07:36:13,2420,42.8014,5.9826,1.058,0.019,3.251,155.0,151.0,152.0,11.8,1504.7,271.4,-0.9,0.9,2485.318,13.28,771.0,1.058,89.0
2023-12-21T07:39:13,2420,42.8014,5.9826,0.777,0.055,3.532,155.0,151.0,152.0,11.8,1504.7,271.3,-0.8,0.9,2485.334,13.28,778.0,0.779,86.0
2023-12-21T07:42:13,2420,42.8014,5.9826,0.874,-0.216,3.072,155.0,151.0,152.0,11.8,1504.7,271.6,-0.8,0.9,2485.249,13.28,766.0,0.9,103.9
2023-12-21T07:45:13,2420,42.8014,5.9826,0.763,0.041,3.588,155.0,151.0,152.0,11.8,1504.7,271.4,-0.8,0.9,2485.285,13.28,763.0,0.764,86.9
2023-12-21T07:48:13,2420,42.8014,5.9826,0.871,0.038,3.466,155.0,151.0,152.0,11.7,1504.7,271.5,-0.8,0.9,2485.303,13.28,769.0,0.872,87.5
2023-12-21T07:51:12,2420,42.8014,5.9826,0.779,0.021,3.504,155.0,151.0,152.0,11.7,1504.7,271.3,-0.8,0.9,2485.077,13.28,771.0,0.779,88.5
2023-12-21T07:54:12,2420,42.8014,5.9826,1.02,0.037,3.302,155.0,152.0,152.0,11.8,1504.7,271.3,-0.9,0.9,2485.267,13.28,761.0,1.021,87.9
2023-12-21T07:57:13,2420,42.8014,5.9826,0.619,0.281,3.285,155.0,151.0,152.0,11.8,1504.7,271.3,-0.8,0.9,2484.87,13.28,773.0,0.68,65.6
2023-12-21T08:03:13,2420,42.8014,5.9826,0.556,0.038,3.747,155.0,151.0,152.0,11.8,1504.7,271.4,-0.9,0.9,2485.217,13.28,765.0,0.557,86.1
2023-12-21T08:06:12,2420,42.8014,5.9826,0.631,-0.21,3.263,155.0,151.0,152.0,11.8,1504.7,271.3,-0.8,0.9,2485.583,13.28,775.0,0.665,108.4
2023-12-21T08:09:12,2420,42.8014,5.9826,0.654,-0.224,3.222,155.0,151.0,152.0,11.8,1504.7,271.5,-0.8,0.9,2485.384,13.28,765.0,0.691,108.9
2023-12-21T08:12:13,2420,42.8014,5.9826,1.185,0.017,3.133,155.0,152.0,152.0,11.8,1504.7,271.4,-0.8,0.9,2485.201,13.28,773.0,1.185,89.2
2023-12-21T08:15:13,2420,42.8014,5.9826,1.009,0.015,3.298,155.0,152.0,152.0,11.8,1504.7,271.4,-0.8,0.9,2485.123,13.28,761.0,1.009,89.1
2023-12-21T08:18:13,2420,42.8014,5.9826,0.645,-0.217,3.254,155.0,152.0,152.0,11.8,1504.7,271.4,-0.8,0.9,2485.004,13.28,760.0,0.68,108.6
2023-12-21T08:21:13,2420,42.8014,5.9826,1.011,0.029,3.291,155.0,151.0,152.0,11.8,1504.7,271.4,-0.8,0.9,2485.241,13.28,762.0,1.011,88.4
2023-12-21T08:24:13,2420,42.8014,5.9826,0.529,-0.444,2.903,155.0,151.0,152.0,11.8,1504.7,271.3,-0.8,0.9,2485.651,13.28,763.0,0.691,130.0
2023-12-21T08:27:13,2420,42.8014,5.9826,0.589,0.074,3.688,155.0,151.0,152.0,11.8,1504.7,271.4,-0.8,0.9,2484.816,13.28,782.0,0.594,82.8
2023-12-21T08:30:13,2420,42.8014,5.9826,0.765,0.036,3.534,155.0,152.0,152.0,11.8,1504.7,271.3,-0.9,0.9,2485.396,13.28,757.0,0.766,87.3
2023-12-21T08:33:12,2420,42.8014,5.9826,0.929,0.028,3.378,155.0,151.0,152.0,11.7,1504.7,271.3,-0.9,0.9,2485.615,13.28,766.0,0.929,88.3
2023-12-21T08:36:13,2420,42.8014,5.9826,1.027,0.007,3.317,155.0,151.0,152.0,11.8,1504.7,271.4,-0.8,0.9,2485.233,13.28,763.0,1.027,89.6
2023-12-21T08:39:13,2420,42.8014,5.9826,0.968,0.043,3.374,155.0,151.0,152.0,11.8,1504.7,271.3,-0.8,0.9,2485.173,13.28,778.0,0.969,87.5
2023-12-21T08:42:13,2420,42.8014,5.9826,0.864,0.046,3.402,155.0,151.0,152.0,11.8,1504.7,271.3,-0.9,0.9,2485.43,13.28,772.0,0.865,87.0
2023-12-21T08:45:13,2420,42.8014,5.9826,1.115,0.01,3.18,155.0,151.0,152.0,11.8,1504.7,271.4,-0.8,0.9,2485.48,13.28,779.0,1.115,89.5
2023-12-21T08:48:13,2420,42.8014,5.9826,1.14,0.02,3.176,167.0,151.0,152.0,11.8,1504.7,271.3,-0.8,0.9,2485.257,13.28,766.0,1.14,89.0
2023-12-21T08:51:13,2420,42.8014,5.9826,0.824,0.02,3.524,155.0,151.0,152.0,11.8,1504.7,271.4,-0.8,0.9,2485.42,13.28,776.0,0.824,88.6
2023-12-21T08:54:12,2420,42.8014,5.9826,1.06,-0.23,2.824,155.0,152.0,152.0,11.8,1504.7,271.3,-0.8,0.9,2485.209,13.28,778.0,1.084,102.2
2023-12-21T08:57:13,2420,42.8014,5.9826,0.761,0.041,3.58,155.0,151.0,152.0,11.8,1504.7,271.4,-0.9,0.9,2485.46,13.28,754.0,0.762,86.9
2023-12-21T09:03:12,2420,42.8014,5.9826,0.904,0.029,3.417,155.0,151.0,152.0,11.8,1504.7,271.3,-0.9,0.9,2485.526,13.28,769.0,0.904,88.2
2023-12-21T09:06:13,2420,42.8014,5.9826,0.807,0.031,3.493,155.0,152.0,152.0,11.8,1504.7,271.3,-0.8,0.9,2485.605,13.28,767.0,0.808,87.8